Location: Clason Point
(40.8136°N, 73.8618°W)
Time: 00:06:30
(UTC+00:00)

GEOS 3 Rocket - Pass Details

Date: 16 September 2019
Orbit: 790 x 830 km, 115.0° (Epoch: 20 October)

Event Time Altitude Azimuth Distance (km) Brightness Sun altitude
Exits shadow 23:35:47 - 131° (SE) 2,944 6.0 -7.0°
Reaches altitude 10° 23:37:16 10° 129° (SE) 2,347 5.5 -7.2°
Maximum altitude 23:42:16 61° 50° (NE) 895 3.7 -8.2°
Drops below altitude 10° 23:47:18 10° 331° (NNW) 2,364 6.6 -9.1°
Sets 23:49:36 0° 328° (NNW) 3,300 7.5 -9.5°
